Location: Arrodets-la-Barthe
(43.0306°N, 0.2829°E)
Time: 12:32:03
(UTC+00:00)

Lacrosse 4 Rocket - Pass Details

Date: 02 June 2022
Orbit: 541 x 611 km, 68.0° (Epoch: 03 July)

Event Time Altitude Azimuth Distance (km) Brightness Sun altitude
Exits shadow 01:54:34 27° 149° (SSE) 1,120 2.6 -19.4°
Maximum altitude 01:55:54 34° 112° (ESE) 957 2.5 -19.3°
Drops below altitude 10° 01:59:43 10° 47° (NE) 1,870 5.1 -18.9°
Sets 02:02:02 0° 38° (NE) 2,759 6.5 -18.7°
